| time (UTC) | temp C | wind direction | speed KPH | gust KPH | rain 1hr cm | rain 24hr cm | rain mn cm | humidity % | barometer mb |
| 20260508004332 | 11 | 225 | 6.4 | 17.7 | 0.00 | 0.00 | 0.76 | 73 | 996.5 |
| 20260508003822 | 11 | 225 | 8.0 | 17.7 | 0.00 | 0.00 | 0.76 | 72 | 996.4 |
| 20260508003312 | 11 | 248 | 8.0 | 22.5 | 0.00 | 0.00 | 0.76 | 72 | 996.3 |
| 20260508002252 | 11 | 270 | 8.0 | 25.7 | 0.00 | 0.00 | 0.76 | 73 | 996.2 |
| 20260508000722 | 11 | 203 | 11.3 | 32.2 | 0.00 | 0.00 | 0.76 | 71 | 996.4 |
| 20260508000212 | 12 | 225 | 14.5 | 32.2 | 0.00 | 0.00 | 0.76 | 71 | 996.4 |
| 20260507235702 | 12 | 315 | 9.7 | 24.1 | 0.00 | 0.00 | 0.76 | 69 | 996.3 |
| 20260507235151 | 12 | 203 | 9.7 | 22.5 | 0.00 | 0.00 | 0.76 | 69 | 996.3 |
| 20260507234642 | 12 | 225 | 12.9 | 25.7 | 0.00 | 0.00 | 0.76 | 69 | 996.4 |
| 20260507234131 | 12 | 270 | 12.9 | 25.7 | 0.00 | 0.00 | 0.76 | 68 | 996.2 |
| 20260507233621 | 12 | 203 | 16.1 | 25.7 | 0.00 | 0.00 | 0.76 | 68 | 996.3 |
| 20260507232601 | 12 | 225 | 11.3 | 29.0 | 0.00 | 0.00 | 0.76 | 68 | 996.4 |
| 20260507231541 | 12 | 180 | 12.9 | 27.4 | 0.00 | 0.00 | 0.76 | 67 | 996.1 |
| 20260507231031 | 12 | 270 | 11.3 | 24.1 | 0.00 | 0.00 | 0.76 | 67 | 996.1 |
| 20260507230521 | 12 | 225 | 12.9 | 24.1 | 0.00 | 0.00 | 0.76 | 66 | 996.1 |
| 20260507230014 | 12 | 180 | 8.0 | 22.5 | 0.00 | 0.00 | 0.76 | 67 | 995.9 |
| 20260507225500 | 13 | 270 | 11.3 | 22.5 | 0.00 | 0.00 | 0.76 | 67 | 996.1 |
| 20260507224950 | 13 | 203 | 11.3 | 20.9 | 0.00 | 0.00 | 0.76 | 66 | 995.8 |
| 20260507224440 | 13 | 180 | 11.3 | 27.4 | 0.00 | 0.00 | 0.76 | 66 | 995.6 |
| 20260507223930 | 13 | 248 | 12.9 | 27.4 | 0.00 | 0.00 | 0.76 | 65 | 995.5 |
| 20260507223420 | 13 | 293 | 11.3 | 27.4 | 0.00 | 0.00 | 0.76 | 65 | 995.6 |
| 20260507222909 | 13 | 270 | 12.9 | 24.1 | 0.00 | 0.00 | 0.76 | 65 | 995.3 |
| 20260507222359 | 13 | 270 | 11.3 | 24.1 | 0.00 | 0.00 | 0.76 | 65 | 995.0 |
| 20260507221339 | 13 | 270 | 6.4 | 17.7 | 0.00 | 0.00 | 0.76 | 66 | 994.7 |
| 20260507220318 | 13 | 270 | 9.7 | 24.1 | 0.00 | 0.00 | 0.76 | 64 | 994.4 |
| 20260507215809 | 13 | 158 | 8.0 | 24.1 | 0.00 | 0.00 | 0.76 | 64 | 994.2 |
| 20260507215300 | 13 | 270 | 9.7 | 17.7 | 0.00 | 0.00 | 0.76 | 64 | 993.9 |
| 20260507214749 | 13 | 248 | 6.4 | 20.9 | 0.00 | 0.00 | 0.76 | 65 | 994.3 |
| 20260507214239 | 13 | 248 | 12.9 | 20.9 | 0.00 | 0.00 | 0.76 | 64 | 994.1 |
| 20260507213729 | 13 | 248 | 6.4 | 25.7 | 0.00 | 0.00 | 0.76 | 65 | 993.8 |
| 20260507213218 | 13 | 225 | 12.9 | 25.7 | 0.00 | 0.00 | 0.76 | 64 | 993.6 |
| 20260507212708 | 13 | 270 | 6.4 | 17.7 | 0.00 | 0.00 | 0.76 | 64 | 993.4 |
| 20260507212158 | 13 | 270 | 14.5 | 24.1 | 0.00 | 0.00 | 0.76 | 64 | 993.6 |
| 20260507211647 | 13 | 293 | 12.9 | 24.1 | 0.00 | 0.00 | 0.76 | 64 | 994.0 |
| 20260507211139 | 13 | 225 | 11.3 | 24.1 | 0.00 | 0.00 | 0.76 | 64 | 993.9 |
| 20260507205608 | 13 | 248 | 8.0 | 22.5 | 0.00 | 0.00 | 0.76 | 65 | 994.3 |
| 20260507205057 | 13 | 270 | 8.0 | 24.1 | 0.00 | 0.00 | 0.76 | 64 | 994.5 |
| 20260507204547 | 13 | 203 | 8.0 | 24.1 | 0.00 | 0.00 | 0.76 | 65 | 994.2 |
| 20260507204037 | 13 | 248 | 6.4 | 20.9 | 0.00 | 0.00 | 0.76 | 66 | 994.3 |
| 20260507203528 | 13 | 225 | 6.4 | 24.1 | 0.00 | 0.00 | 0.76 | 66 | 994.2 |
| 20260507203016 | 13 | 270 | 6.4 | 24.1 | 0.00 | 0.00 | 0.76 | 66 | 994.6 |
| 20260507202507 | 13 | 270 | 8.0 | 25.7 | 0.00 | 0.00 | 0.76 | 66 | 994.6 |
| 20260507201446 | 13 | 225 | 9.7 | 25.7 | 0.00 | 0.00 | 0.76 | 66 | 994.7 |
| 20260507200936 | 14 | 203 | 12.9 | 32.2 | 0.00 | 0.00 | 0.76 | 66 | 994.2 |
| 20260507200427 | 14 | 270 | 16.1 | 32.2 | 0.00 | 0.00 | 0.76 | 65 | 994.0 |
| 20260507195406 | 14 | 135 | 11.3 | 27.4 | 0.00 | 0.00 | 0.76 | 66 | 993.9 |
| 20260507194856 | 14 | 203 | 12.9 | 32.2 | 0.00 | 0.00 | 0.76 | 66 | 993.8 |
| 20260507194346 | 14 | 225 | 12.9 | 32.2 | 0.00 | 0.00 | 0.76 | 65 | 993.6 |
| 20260507193836 | 14 | 248 | 8.0 | 25.7 | 0.00 | 0.00 | 0.76 | 66 | 993.5 |
| 20260507193326 | 14 | 248 | 12.9 | 27.4 | 0.00 | 0.00 | 0.76 | 65 | 993.3 |
| 20260507192816 | 14 | 248 | 12.9 | 27.4 | 0.00 | 0.00 | 0.76 | 66 | 993.2 |
| 20260507192306 | 14 | 315 | 12.9 | 32.2 | 0.00 | 0.00 | 0.76 | 65 | 992.9 |
| 20260507191755 | 14 | 203 | 19.3 | 32.2 | 0.00 | 0.00 | 0.76 | 64 | 992.8 |
| 20260507191245 | 14 | 203 | 17.7 | 29.0 | 0.00 | 0.00 | 0.76 | 64 | 992.7 |
| 20260507190735 | 14 | 248 | 8.0 | 22.5 | 0.00 | 0.00 | 0.76 | 65 | 992.9 |
| 20260507190225 | 14 | 248 | 11.3 | 27.4 | 0.00 | 0.00 | 0.76 | 66 | 993.1 |
| 20260507184654 | 14 | 248 | 11.3 | 29.0 | 0.00 | 0.00 | 0.76 | 64 | 993.2 |
| 20260507184145 | 15 | 180 | 16.1 | 29.0 | 0.00 | 0.00 | 0.76 | 62 | 993.0 |
| 20260507183634 | 15 | 315 | 12.9 | 29.0 | 0.00 | 0.00 | 0.76 | 62 | 993.3 |
| 20260507183124 | 15 | 293 | 12.9 | 29.0 | 0.00 | 0.00 | 0.76 | 61 | 993.4 |
| 20260507182624 | 15 | 248 | 17.7 | 29.0 | 0.00 | 0.00 | 0.76 | 61 | 993.5 |
| 20260507182101 | 15 | 270 | 9.7 | 25.7 | 0.00 | 0.00 | 0.76 | 60 | 994.1 |
| 20260507180534 | 15 | 338 | 11.3 | 25.7 | 0.00 | 0.00 | 0.76 | 60 | 994.3 |
| 20260507180024 | 15 | 180 | 14.5 | 25.7 | 0.00 | 0.00 | 0.76 | 59 | 994.5 |
| 20260507175513 | 15 | 180 | 9.7 | 25.7 | 0.00 | 0.00 | 0.76 | 60 | 994.4 |
| 20260507175004 | 15 | 203 | 12.9 | 25.7 | 0.00 | 0.00 | 0.76 | 59 | 994.5 |
| 20260507173434 | 15 | 225 | 12.9 | 25.7 | 0.00 | 0.00 | 0.76 | 60 | 994.9 |
| 20260507172923 | 15 | 225 | 9.7 | 25.7 | 0.00 | 0.00 | 0.76 | 60 | 994.4 |
| 20260507172413 | 15 | 225 | 12.9 | 25.7 | 0.00 | 0.00 | 0.76 | 59 | 994.8 |
| 20260507171902 | 15 | 203 | 16.1 | 25.7 | 0.00 | 0.00 | 0.76 | 59 | 994.5 |
| 20260507170843 | 15 | 203 | 12.9 | 32.2 | 0.00 | 0.00 | 0.76 | 60 | 994.5 |
| 20260507170332 | 15 | 248 | 12.9 | 25.7 | 0.00 | 0.00 | 0.76 | 59 | 994.5 |
| 20260507165312 | 15 | 270 | 6.4 | 22.5 | 0.00 | 0.00 | 0.76 | 60 | 994.4 |
| 20260507164802 | 15 | 248 | 12.9 | 22.5 | 0.00 | 0.00 | 0.76 | 59 | 994.4 |
| 20260507164252 | 15 | 225 | 11.3 | 22.5 | 0.00 | 0.00 | 0.76 | 60 | 994.0 |
| 20260507163742 | 15 | 180 | 12.9 | 22.5 | 0.00 | 0.00 | 0.76 | 59 | 994.4 |
| 20260507163232 | 14 | 248 | 8.0 | 22.5 | 0.00 | 0.00 | 0.76 | 61 | 994.5 |
| 20260507162722 | 14 | 293 | 6.4 | 22.5 | 0.00 | 0.00 | 0.76 | 62 | 994.5 |
| 20260507162212 | 14 | 180 | 6.4 | 25.7 | 0.00 | 0.00 | 0.76 | 61 | 994.5 |
| 20260507161702 | 14 | 203 | 11.3 | 25.7 | 0.00 | 0.00 | 0.76 | 62 | 994.6 |
| 20260507161152 | 14 | 270 | 12.9 | 25.7 | 0.00 | 0.00 | 0.76 | 61 | 994.6 |
| 20260507155621 | 14 | 270 | 9.7 | 22.5 | 0.00 | 0.00 | 0.76 | 63 | 994.9 |
| 20260507155111 | 14 | 158 | 4.8 | 14.5 | 0.00 | 0.00 | 0.76 | 65 | 995.1 |
| 20260507154601 | 13 | 225 | 6.4 | 17.7 | 0.00 | 0.00 | 0.76 | 65 | 995.1 |
| 20260507154051 | 13 | 315 | 9.7 | 17.7 | 0.00 | 0.00 | 0.76 | 64 | 995.2 |
| 20260507153541 | 13 | 270 | 6.4 | 14.5 | 0.00 | 0.00 | 0.76 | 66 | 995.5 |
| 20260507152010 | 13 | 270 | 4.8 | 17.7 | 0.00 | 0.00 | 0.76 | 67 | 995.2 |
| 20260507151500 | 13 | 248 | 8.0 | 17.7 | 0.00 | 0.00 | 0.76 | 66 | 994.7 |
| 20260507150950 | 13 | 203 | 8.0 | 17.7 | 0.00 | 0.00 | 0.76 | 66 | 994.5 |
| 20260507150440 | 13 | 203 | 6.4 | 14.5 | 0.00 | 0.00 | 0.76 | 66 | 994.7 |
| 20260507145930 | 13 | 315 | 6.4 | 17.7 | 0.00 | 0.00 | 0.76 | 66 | 995.0 |
| 20260507145420 | 13 | 248 | 3.2 | 17.7 | 0.00 | 0.00 | 0.76 | 66 | 995.2 |
| 20260507144910 | 13 | 225 | 3.2 | 17.7 | 0.00 | 0.00 | 0.76 | 66 | 995.0 |
| 20260507144359 | 13 | 225 | 4.8 | 17.7 | 0.00 | 0.00 | 0.76 | 68 | 995.0 |
| 20260507143849 | 13 | 225 | 4.8 | 17.7 | 0.00 | 0.00 | 0.76 | 68 | 994.9 |
| 20260507142830 | 13 | 225 | 3.2 | 20.9 | 0.00 | 0.00 | 0.76 | 68 | 995.0 |
| 20260507142321 | 13 | 225 | 3.2 | 17.7 | 0.00 | 0.00 | 0.76 | 68 | 995.0 |
| 20260507141259 | 13 | 248 | 3.2 | 12.9 | 0.00 | 0.00 | 0.76 | 68 | 995.1 |
| 20260507140750 | 13 | 270 | 6.4 | 14.5 | 0.00 | 0.00 | 0.76 | 68 | 995.1 |
| 20260507135218 | 13 | 270 | 6.4 | 20.9 | 0.00 | 0.00 | 0.76 | 68 | 994.9 |
| 20260507134708 | 13 | 248 | 9.7 | 20.9 | 0.00 | 0.00 | 0.76 | 68 | 995.0 |
| 20260507133647 | 13 | 293 | 4.8 | 11.3 | 0.00 | 0.00 | 0.76 | 69 | 995.1 |
| 20260507133137 | 13 | 225 | 6.4 | 14.5 | 0.00 | 0.00 | 0.76 | 68 | 994.9 |
| 20260507132118 | 13 | 270 | 8.0 | 22.5 | 0.00 | 0.00 | 0.76 | 69 | 995.1 |
| 20260507131607 | 13 | 248 | 8.0 | 22.5 | 0.00 | 0.00 | 0.76 | 67 | 994.7 |
| 20260507131057 | 13 | 248 | 4.8 | 17.7 | 0.00 | 0.00 | 0.76 | 71 | 994.4 |
| 20260507130547 | 13 | 248 | 6.4 | 22.5 | 0.00 | 0.00 | 0.76 | 72 | 994.2 |
| 20260507130037 | 13 | 225 | 6.4 | 22.5 | 0.00 | 0.00 | 0.76 | 71 | 994.4 |
| 20260507125527 | 13 | 180 | 11.3 | 17.7 | 0.00 | 0.00 | 0.76 | 70 | 994.4 |
| 20260507124507 | 13 | 225 | 11.3 | 20.9 | 0.00 | 0.00 | 0.76 | 72 | 994.4 |
| 20260507123957 | 13 | 248 | 9.7 | 20.9 | 0.00 | 0.00 | 0.76 | 71 | 993.6 |
| 20260507123446 | 13 | 180 | 8.0 | 17.7 | 0.00 | 0.00 | 0.76 | 73 | 993.5 |
| 20260507122426 | 13 | 248 | 8.0 | 20.9 | 0.00 | 0.00 | 0.76 | 73 | 993.4 |
| 20260507121916 | 13 | 248 | 8.0 | 24.1 | 0.00 | 0.00 | 0.76 | 72 | 993.5 |
| 20260507121406 | 13 | 203 | 8.0 | 24.1 | 0.00 | 0.00 | 0.76 | 72 | 993.4 |
| 20260507115837 | 13 | 270 | 12.9 | 27.4 | 0.00 | 0.00 | 0.76 | 74 | 992.3 |
| 20260507115326 | 13 | 248 | 16.1 | 27.4 | 0.00 | 0.00 | 0.76 | 72 | 991.7 |
| 20260507114816 | 13 | 270 | 16.1 | 27.4 | 0.00 | 0.00 | 0.76 | 73 | 991.8 |
| 20260507114305 | 13 | 248 | 17.7 | 27.4 | 0.00 | 0.00 | 0.76 | 73 | 991.8 |
| 20260507113245 | 13 | 225 | 12.9 | 33.8 | 0.00 | 0.00 | 0.76 | 75 | 992.4 |
| 20260507112735 | 13 | 270 | 17.7 | 33.8 | 0.00 | 0.00 | 0.76 | 75 | 992.1 |
| 20260507112225 | 13 | 225 | 11.3 | 27.4 | 0.00 | 0.00 | 0.76 | 76 | 991.8 |
| 20260507111205 | 13 | 248 | 12.9 | 24.1 | 0.00 | 0.00 | 0.76 | 76 | 991.6 |
| 20260507110655 | 13 | 248 | 9.7 | 22.5 | 0.00 | 0.00 | 0.76 | 77 | 991.7 |
| 20260507105635 | 13 | 248 | 12.9 | 27.4 | 0.00 | 0.00 | 0.76 | 76 | 991.8 |
| 20260507105125 | 14 | 180 | 9.7 | 27.4 | 0.00 | 0.00 | 0.76 | 77 | 992.3 |
| 20260507104615 | 14 | 180 | 12.9 | 20.9 | 0.00 | 0.00 | 0.76 | 76 | 992.6 |
| 20260507104104 | 14 | 248 | 9.7 | 24.1 | 0.00 | 0.00 | 0.76 | 78 | 992.6 |
| 20260507103553 | 14 | 248 | 12.9 | 24.1 | 0.00 | 0.00 | 0.76 | 78 | 992.7 |
| 20260507103045 | 15 | 248 | 6.4 | 22.5 | 0.00 | 0.00 | 0.76 | 80 | 992.6 |
| 20260507102533 | 15 | 203 | 12.9 | 24.1 | 0.00 | 0.00 | 0.76 | 81 | 992.7 |
| 20260507102023 | 15 | 248 | 9.7 | 27.4 | 0.00 | 0.00 | 0.76 | 82 | 993.1 |
| 20260507101515 | 15 | 293 | 11.3 | 27.4 | 0.00 | 0.00 | 0.76 | 82 | 993.1 |
| 20260507101004 | 15 | 248 | 11.3 | 17.7 | 0.00 | 0.00 | 0.76 | 82 | 993.3 |
| 20260507100454 | 15 | 270 | 8.0 | 24.1 | 0.00 | 0.00 | 0.76 | 84 | 993.0 |
| 20260507095943 | 15 | 180 | 12.9 | 24.1 | 0.00 | 0.00 | 0.76 | 84 | 993.4 |
| 20260507095433 | 16 | 203 | 8.0 | 27.4 | 0.00 | 0.00 | 0.76 | 83 | 993.5 |
| 20260507094923 | 16 | 270 | 6.4 | 27.4 | 0.00 | 0.00 | 0.76 | 82 | 993.4 |
| 20260507094410 | 16 | 225 | 12.9 | 25.7 | 0.00 | 0.00 | 0.76 | 82 | 993.5 |
| 20260507093352 | 16 | 270 | 11.3 | 33.8 | 0.00 | 0.00 | 0.76 | 85 | 993.2 |
| 20260507092843 | 16 | 248 | 11.3 | 33.8 | 0.00 | 0.00 | 0.76 | 87 | 993.5 |
| 20260507091312 | 16 | 293 | 6.4 | 17.7 | 0.00 | 0.00 | 0.76 | 92 | 994.2 |
| 20260507090802 | 16 | 225 | 6.4 | 17.7 | 0.00 | 0.00 | 0.76 | 91 | 994.5 |
| 20260507090252 | 16 | 203 | 6.4 | 22.5 | 0.00 | 0.00 | 0.76 | 91 | 995.3 |
| 20260507085742 | 16 | 225 | 8.0 | 25.7 | 0.00 | 0.00 | 0.76 | 91 | 994.3 |
| 20260507085232 | 16 | 203 | 12.9 | 25.7 | 0.00 | 0.00 | 0.76 | 91 | 993.2 |
| 20260507084211 | 17 | 225 | 16.1 | 25.7 | 0.00 | 0.00 | 0.76 | 90 | 992.9 |
| 20260507083701 | 17 | 225 | 12.9 | 22.5 | 0.00 | 0.00 | 0.76 | 90 | 992.7 |
| 20260507083151 | 16 | 225 | 11.3 | 22.5 | 0.00 | 0.00 | 0.76 | 91 | 992.5 |
| 20260507082641 | 16 | 270 | 8.0 | 24.1 | 0.00 | 0.00 | 0.76 | 91 | 992.6 |
| 20260507082131 | 16 | 293 | 9.7 | 24.1 | 0.00 | 0.00 | 0.76 | 92 | 992.7 |
| 20260507081621 | 16 | 180 | 8.0 | 24.1 | 0.00 | 0.00 | 0.76 | 93 | 992.4 |
| 20260507081111 | 16 | 270 | 6.4 | 24.1 | 0.00 | 0.00 | 0.76 | 92 | 992.6 |
| 20260507080600 | 16 | 203 | 8.0 | 17.7 | 0.00 | 0.00 | 0.76 | 92 | 992.5 |
| 20260507080051 | 17 | 293 | 8.0 | 17.7 | 0.00 | 0.00 | 0.76 | 91 | 992.9 |
| 20260507075540 | 17 | 180 | 8.0 | 22.5 | 0.00 | 0.00 | 0.76 | 90 | 992.8 |
| 20260507075030 | 17 | 270 | 11.3 | 22.5 | 0.00 | 0.00 | 0.76 | 90 | 992.7 |
| 20260507074520 | 17 | 248 | 12.9 | 22.5 | 0.00 | 0.00 | 0.76 | 89 | 992.2 |
| 20260507074010 | 17 | 225 | 9.7 | 20.9 | 0.00 | 0.00 | 0.76 | 89 | 992.3 |
| 20260507073500 | 17 | 203 | 9.7 | 17.7 | 0.00 | 0.00 | 0.76 | 89 | 992.6 |
| 20260507072950 | 17 | 203 | 9.7 | 20.9 | 0.00 | 0.00 | 0.76 | 90 | 993.0 |
| 20260507072439 | 17 | 270 | 6.4 | 20.9 | 0.00 | 0.00 | 0.76 | 89 | 993.0 |
| 20260507071419 | 17 | 248 | 6.4 | 17.7 | 0.00 | 0.00 | 0.76 | 91 | 993.2 |
| 20260507070909 | 17 | 270 | 4.8 | 11.3 | 0.00 | 0.00 | 0.76 | 91 | 993.3 |
| 20260507070358 | 17 | 248 | 3.2 | 0.0 | 0.00 | 0.00 | 0.76 | 92 | 993.6 |
| 20260507070150 | 17 | 203 | 3.2 | 0.0 | 0.00 | 0.00 | 0.76 | 92 | 993.7 |
| 20260507065751 | 17 | 203 | 6.4 | 11.3 | 0.00 | 0.76 | 0.76 | 91 | 993.6 |
| 20260507064730 | 18 | 248 | 3.2 | 6.4 | 0.00 | 0.76 | 0.76 | 90 | 993.1 |
| 20260507064220 | 18 | 225 | 3.2 | 6.4 | 0.00 | 0.76 | 0.76 | 90 | 993.1 |
| 20260507063710 | 18 | 248 | 3.2 | 11.3 | 0.00 | 0.76 | 0.76 | 90 | 992.9 |
| 20260507063200 | 18 | 248 | 3.2 | 11.3 | 0.03 | 0.76 | 0.76 | 90 | 992.3 |
| 20260507062649 | 18 | 225 | 4.8 | 9.7 | 0.03 | 0.76 | 0.76 | 90 | 992.6 |
| 20260507062140 | 18 | 225 | 1.6 | 11.3 | 0.03 | 0.76 | 0.76 | 90 | 992.1 |
| 20260507061630 | 18 | 270 | 6.4 | 11.3 | 0.03 | 0.76 | 0.76 | 89 | 991.9 |
| 20260507061119 | 18 | 315 | 3.2 | 6.4 | 0.03 | 0.76 | 0.76 | 90 | 991.6 |
| 20260507060059 | 18 | 225 | 3.2 | 6.4 | 0.03 | 0.76 | 0.76 | 90 | 993.0 |
| 20260507055549 | 18 | 225 | 1.6 | 3.2 | 0.03 | 0.76 | 0.76 | 93 | 992.9 |
| 20260507055038 | 18 | 225 | 1.6 | 3.2 | 0.03 | 0.76 | 0.76 | 94 | 992.5 |
| 20260507054019 | 18 | 113 | 1.6 | 3.2 | 0.13 | 0.76 | 0.76 | 92 | 992.6 |
| 20260507053509 | 18 | 113 | 0.0 | 3.2 | 0.15 | 0.76 | 0.76 | 91 | 993.0 |
| 20260507052955 | 18 | 68 | 1.6 | 6.4 | 0.18 | 0.71 | 0.71 | 91 | 992.5 |
| 20260507052448 | 18 | 113 | 0.0 | 6.4 | 0.18 | 0.71 | 0.71 | 90 | 992.7 |
| 20260507051939 | 18 | 248 | 3.2 | 6.4 | 0.20 | 0.71 | 0.71 | 89 | 992.5 |
| 20260507051428 | 18 | 248 | 3.2 | 11.3 | 0.20 | 0.71 | 0.71 | 89 | 991.3 |
| 20260507045858 | 18 | 248 | 8.0 | 17.7 | 0.20 | 0.71 | 0.71 | 87 | 990.9 |
| 20260507045347 | 18 | 248 | 6.4 | 32.2 | 0.20 | 0.71 | 0.71 | 88 | 991.1 |
| 20260507044838 | 18 | 248 | 12.9 | 33.8 | 0.18 | 0.69 | 0.69 | 88 | 989.7 |
| 20260507044327 | 18 | 248 | 12.9 | 33.8 | 0.15 | 0.66 | 0.66 | 88 | 989.2 |
| 20260507043817 | 19 | 203 | 14.5 | 48.3 | 0.10 | 0.61 | 0.61 | 86 | 989.6 |
| 20260507042757 | 18 | 203 | 8.0 | 20.9 | 0.23 | 0.53 | 0.53 | 86 | 991.3 |
| 20260507042247 | 18 | 68 | 8.0 | 11.3 | 0.46 | 0.51 | 0.51 | 90 | 991.2 |
| 20260507041227 | 19 | 248 | 4.8 | 17.7 | 0.51 | 0.51 | 0.51 | 86 | 990.4 |
| 20260507040718 | 18 | 180 | 6.4 | 14.5 | 0.51 | 0.51 | 0.51 | 87 | 989.9 |
| 20260507040206 | 18 | 270 | 4.8 | 14.5 | 0.51 | 0.51 | 0.51 | 89 | 989.4 |
| 20260507035656 | 18 | 203 | 6.4 | 17.7 | 0.51 | 0.51 | 0.51 | 90 | 989.0 |
| 20260507034636 | 18 | 180 | 6.4 | 33.8 | 0.51 | 0.51 | 0.51 | 88 | 988.9 |
| 20260507034126 | 19 | 225 | 24.1 | 33.8 | 0.51 | 0.51 | 0.51 | 86 | 989.5 |
| 20260507033106 | 20 | 203 | 11.3 | 17.7 | 0.30 | 0.30 | 0.30 | 93 | 991.1 |
| 20260507032556 | 20 | 270 | 6.4 | 17.7 | 0.30 | 0.30 | 0.30 | 93 | 989.8 |
| 20260507032046 | 21 | 248 | 6.4 | 17.7 | 0.00 | 0.00 | 0.00 | 91 | 989.7 |
| 20260507031537 | 21 | 293 | 6.4 | 20.9 | 0.00 | 0.00 | 0.00 | 92 | 989.5 |
| 20260507031025 | 21 | 225 | 6.4 | 25.7 | 0.00 | 0.00 | 0.00 | 90 | 989.4 |
| 20260507030515 | 22 | 225 | 12.9 | 25.7 | 0.00 | 0.00 | 0.00 | 86 | 989.1 |
| 20260507025455 | 23 | 203 | 12.9 | 24.1 | 0.00 | 0.00 | 0.00 | 85 | 989.4 |
| 20260507024945 | 23 | 270 | 9.7 | 20.9 | 0.00 | 0.00 | 0.00 | 83 | 990.1 |
| 20260507024435 | 23 | 203 | 4.8 | 12.9 | 0.00 | 0.00 | 0.00 | 85 | 989.6 |
| 20260507023925 | 23 | 270 | 3.2 | 6.4 | 0.00 | 0.00 | 0.00 | 86 | 990.2 |
| 20260507023414 | 23 | 315 | 3.2 | 6.4 | 0.00 | 0.00 | 0.00 | 86 | 990.5 |
| 20260507022355 | 22 | 270 | 0.0 | 3.2 | 0.00 | 0.00 | 0.00 | 88 | 990.6 |
| 20260507021844 | 22 | 270 | 0.0 | 3.2 | 0.00 | 0.00 | 0.00 | 88 | 990.7 |
| 20260507021334 | 22 | 270 | 0.0 | 3.2 | 0.00 | 0.00 | 0.00 | 88 | 990.8 |
| 20260507020314 | 23 | 315 | 0.0 | 3.2 | 0.00 | 0.00 | 0.00 | 88 | 990.8 |
| 20260507015254 | 23 | 45 | 0.0 | 3.2 | 0.00 | 0.00 | 0.00 | 87 | 990.7 |
| 20260507014233 | 23 | 338 | 1.6 | 3.2 | 0.00 | 0.00 | 0.00 | 87 | 990.8 |
| 20260507013724 | 23 | 113 | 0.0 | 3.2 | 0.00 | 0.00 | 0.00 | 87 | 990.8 |
| 20260507013214 | 23 | 135 | 0.0 | 3.2 | 0.00 | 0.00 | 0.00 | 86 | 990.8 |
| 20260507012703 | 23 | 68 | 0.0 | 6.4 | 0.00 | 0.00 | 0.00 | 86 | 990.6 |
| 20260507011132 | 23 | 338 | 1.6 | 6.4 | 0.00 | 0.00 | 0.00 | 84 | 990.4 |
| 20260507010113 | 23 | 90 | 3.2 | 6.4 | 0.00 | 0.00 | 0.00 | 84 | 990.5 |
| 20260507005602 | 23 | 0 | 1.6 | 6.4 | 0.00 | 0.00 | 0.00 | 84 | 990.3 |
| 20260507005053 | 23 | 68 | 1.6 | 6.4 | 0.00 | 0.00 | 0.00 | 84 | 990.4 |